[[{"header":{"parameterUnit":"m.s-1","parameterCategory":2,"la1":30.2991,"la2":30.254,"lo1":-89.0895,"lo2":-89.0444,"dy":0.0017,"dx":0.0017,"nx":28,"ny":28,"refTime":"2024-09-01T09:00:00:Z","depth":"0","parameterNumber":2,"parameterNumberName":"U-component_of_CURRENTS"},"data":[0,0,0,0,0,0,0,0,0,0,0,0,0,0,0,0,0,0,0,0,0,0,0,0,0,0,0,0,0,0,0,0,0,0,0,0,0,0,0,0,0,0,0,0,0,0,0,0,0,0,0,0,0,0,0,0,0,0,0.2573,0.2574,0,0.2627,0.2628,0.2628,0.2636,0.2635,0.2635,0.2634,0.2624,0.2624,0.2624,0,0,0,0,0,0,0,0,0,0,0,0,0,0.2494,0.2495,0.2573,0.2574,0.2575,0.2627,0.2628,0.2629,0.2636,0.2635,0.2635,0.2634,0.2624,0.2624,0.2624,0,0,0,0,0,0,0,0,0,0,0,0,0,0.2535,0.2495,0.2573,0.2585,0.2587,0.2627,0.2628,0.2629,0.2636,0.2635,0.2635,0.2634,0.2624,0.2624,0.2624,0.2637,0,0,0.2625,0.2625,0,0,0,0,0,0,0,0,0.2532,0.2538,0.2583,0.2585,0.2587,0.2625,0.2596,0.2629,0.2636,0.2616,0.2634,0.2634,0.262,0.262,0.2631,0.2637,0.2636,0.2625,0.2625,0.2625,0.2625,0,0,0,0,0,0,0,0.253,0.2535,0.2593,0.2584,0.2586,0.2595,0.26,0.2603,0.2618,0.2618,0.2619,0.2627,0.262,0.2631,0.2631,0.2636,0.2625,0.2625,0.2625,0.2625,0.2662,0.2662,0,0,0,0,0,0,0.2525,0.2533,0.2592,0.2595,0.2559,0.2597,0.2602,0.2612,0.262,0.2621,0.2627,0.2627,0.2631,0.263,0.263,0.2659,0.2625,0.2625,0.2625,0.2661,0.2662,0.2663,0,0,0,0,0,0,0.2523,0.253,0.2589,0.2566,0.2574,0.2599,0.261,0.2614,0.2628,0.2628,0.2628,0.2638,0.263,0.263,0.2641,0.2658,0.2625,0.2625,0.266,0.2661,0.2662,0.2707,0,0,0,0,0,0,0.2521,0.2529,0.2537,0.2566,0.2575,0.2618,0.2611,0.2615,0.2634,0.2634,0.2637,0.2635,0.263,0.2641,0.2641,0.2657,0.2625,0.2659,0.266,0.2662,0.2705,0.271,0.2714,0,0,0,0,0,0.2518,0.253,0.2538,0.2545,0.2585,0.2619,0.2625,0.2639,0.2635,0.2648,0.265,0.2635,0.2651,0.2642,0.2642,0.2658,0.2658,0.266,0.2662,0.2702,0.2709,0.2714,0,0,0,0,0,0,0.2499,0.2533,0.2541,0.2563,0.2592,0.2621,0.2635,0.2644,0.2657,0.2654,0.2648,0.2648,0.2666,0.2656,0.2646,0.2674,0.2652,0.2654,0.2683,0.2689,0.2694,0.2695,0.2625,0,0,0,0,0,0.25,0.2517,0.2552,0.2569,0.2585,0.2611,0.2627,0.2639,0.2654,0.266,0.2664,0.2666,0.2675,0.2676,0.2682,0.2696,0.2735,0.2706,0.2711,0.2715,0.2717,0.279,0.2803,0.2669,0.2669,0.2669,0,0,0.2496,0.2518,0.2527,0.2567,0.2589,0.2614,0.2619,0.2647,0.2665,0.2656,0.2679,0.2685,0.2684,0.2704,0.271,0.2696,0.2783,0.2718,0.2722,0.272,0.2794,0.2807,0.2819,0.2671,0.267,0.267,0,0,0.2499,0.252,0.2537,0.2563,0.2601,0.262,0.2629,0.2664,0.2679,0.2704,0.2704,0.272,0.2731,0.2738,0.2741,0.2775,0.2809,0.2778,0.28,0.2872,0.2884,0.2895,0.3002,0.3022,0.2776,0.2776,0.2777,0,0.2495,0.252,0.2548,0.2573,0.2592,0.2621,0.2643,0.2668,0.2702,0.2716,0.2713,0.2752,0.2746,0.2777,0.2788,0.2786,0.285,0.2778,0.2881,0.2892,0.2902,0.3009,0.303,0.2779,0.2779,0.2778,0.2778,0,0.2514,0.2534,0.2548,0.2586,0.2611,0.2636,0.2673,0.2697,0.2715,0.2741,0.2781,0.2793,0.2815,0.2818,0.2811,0.2878,0.2912,0.2884,0.2868,0.2919,0.3028,0.305,0.2782,0.2781,0.2781,0.278,0,0,0.2508,0.2551,0.2555,0.2568,0.2619,0.2638,0.2675,0.2717,0.2758,0.2781,0.2844,0.2844,0.2864,0.2869,0.2875,0.2927,0.3061,0.294,0.2943,0.3053,0.327,0.3297,0.3323,0.3064,0.3067,0.307,0.3333,0,0.2516,0.2546,0.2571,0.2599,0.2619,0.2653,0.2691,0.2732,0.2783,0.2857,0.2875,0.2941,0.2882,0.2925,0.2958,0.305,0.3114,0.2995,0.3198,0.3205,0.3227,0.3346,0.3298,0.3528,0.3354,0.3358,0.336,0,0.2532,0.2546,0.2567,0.2606,0.2621,0.2642,0.271,0.2754,0.2854,0.2904,0.2959,0.3011,0.3092,0.3047,0.3197,0.3135,0.32,0.3257,0.3268,0.3286,0.3271,0.344,0.3573,0.3463,0.3393,0.3391,0.3388,0,0.2509,0.2547,0.2554,0.2568,0.2619,0.2633,0.267,0.276,0.2831,0.2963,0.3054,0.313,0.3225,0.3292,0.3394,0.3323,0.3596,0.3509,0.3592,0.3597,0.3589,0.3587,0.3637,0.3618,0.3617,0.3616,0.3616,0,0.2512,0.2519,0.254,0.2544,0.2587,0.2619,0.2699,0.2759,0.2887,0.2994,0.3081,0.3202,0.3295,0.345,0.3488,0.3645,0.3673,0.3639,0.3673,0.3607,0.3603,0.3529,0.347,0.3626,0.3624,0.3622,0.362,0,0.2503,0.2505,0.2531,0.2564,0.258,0.2617,0.2728,0.2791,0.2914,0.3073,0.3133,0.3321,0.3525,0.3642,0.3821,0.3799,0.3842,0.3963,0.3903,0.3923,0.3826,0.3772,0.3729,0.3609,0.409,0.4093,0.4094,0,0.2506,0.2511,0.2552,0.2566,0.2582,0.2642,0.2689,0.2803,0.2882,0.3134,0.3208,0.3477,0.3635,0.3942,0.402,0.4168,0.3978,0.4167,0.3977,0.3858,0.3823,0.3601,0.3483,0.4015,0.4016,0.4017,0.4018,0,0.2525,0.2535,0.2549,0.2583,0.2614,0.2673,0.2741,0.2804,0.2947,0.309,0.3289,0.3452,0.3788,0.3946,0.4171,0.4216,0.3978,0.4187,0.4077,0.3794,0.3544,0.3433,0.3826,0.4026,0.4025,0.4025,0.4024,0.4024,0.2544,0.2555,0.2561,0.2596,0.2627,0.2651,0.267,0.2749,0.2866,0.3026,0.3258,0.3476,0.3817,0.4126,0.4142,0.4165,0.404,0.4056,0.4022,0.382,0.3619,0.4048,0.4256,0.4256,0.4257,0.4257,0.4258,0,0.2532,0.2526,0.2564,0.2558,0.2558,0.2608,0.2656,0.2656,0.2717,0.2949,0.3125,0.3536,0.3752,0.3956,0.414,0.4029,0.3765,0.3924,0.3587,0.3489,0.3926,0.3833,0.394,0.394,0.394,0.394,0.394,0.394,0.2507,0.2505,0.2515,0.2481,0.2474,0.2436,0.244,0.2466,0.2586,0.2792,0.3019,0.3277,0.3686,0.3986,0.3975,0.3883,0.3535,0.3446,0.3325,0.3643,0.3649,0.3654,0.3549,0.3595,0.3595,0.2745,0.2739,0.2735]},{"header":{"parameterUnit":"m.s-1","parameterCategory":2,"la1":30.2991,"la2":30.254,"lo1":-89.0895,"lo2":-89.0444,"dy":0.0017,"dx":0.0017,"nx":28,"ny":28,"refTime":"2024-09-01T09:00:00:Z","depth":"0","parameterNumber":3,"parameterNumberName":"V-component_of_CURRENTS"},"data":[0,0,0,0,0,0,0,0,0,0,0,0,0,0,0,0,0,0,0,0,0,0,0,0,0,0,0,0,0,0,0,0,0,0,0,0,0,0,0,0,0,0,0,0,0,0,0,0,0,0,0,0,0,0,0,0,0,0,-0.0017,-0.0018,0,-0.0103,-0.0104,-0.0105,-0.0168,-0.0169,-0.0169,-0.0169,-0.0264,-0.0266,-0.0268,0,0,0,0,0,0,0,0,0,0,0,0,0,0.0041,0.004,-0.0017,-0.0018,-0.0019,-0.0103,-0.0104,-0.0105,-0.0168,-0.0169,-0.0169,-0.017,-0.0263,-0.0266,-0.0268,0,0,0,0,0,0,0,0,0,0,0,0,0,-0.0009,0.004,-0.0017,-0.006,-0.0064,-0.0102,-0.0104,-0.0105,-0.0168,-0.0169,-0.0169,-0.017,-0.0262,-0.0265,-0.0269,-0.0274,0,0,-0.0278,-0.028,0,0,0,0,0,0,0,0,-0.0006,-0.0012,-0.0052,-0.0057,-0.0062,-0.0124,-0.0118,-0.0162,-0.0168,-0.013,-0.0169,-0.017,-0.0217,-0.0224,-0.024,-0.0279,-0.0283,-0.0278,-0.028,-0.0282,-0.0283,0,0,0,0,0,0,0,-0.0003,-0.0009,-0.0052,-0.0053,-0.0059,-0.0092,-0.01,-0.0127,-0.0169,-0.0133,-0.0138,-0.0145,-0.022,-0.0237,-0.0243,-0.0284,-0.0278,-0.0281,-0.0283,-0.0284,-0.0335,-0.0334,0,0,0,0,0,0,0.0013,-0.0005,-0.0049,-0.0055,-0.0034,-0.0092,-0.0101,-0.0105,-0.0169,-0.0179,-0.0144,-0.0148,-0.0231,-0.0239,-0.0246,-0.0258,-0.0282,-0.0285,-0.0286,-0.0335,-0.0334,-0.0334,0,0,0,0,0,0,0.0015,0.001,-0.0046,-0.0031,-0.0041,-0.0092,-0.0096,-0.0106,-0.0124,-0.0178,-0.0188,-0.0152,-0.0232,-0.0242,-0.0264,-0.0262,-0.0286,-0.0289,-0.0336,-0.0335,-0.0334,-0.0281,0,0,0,0,0,0,0.0017,0.0012,0.0016,-0.003,-0.0041,-0.0062,-0.0096,-0.0107,-0.0127,-0.0132,-0.0188,-0.0197,-0.0233,-0.0259,-0.0267,-0.0267,-0.0291,-0.0336,-0.0335,-0.0334,-0.0284,-0.0279,-0.0275,0,0,0,0,0,0.002,0.0031,0.0017,0.0012,-0.0033,-0.0061,-0.0069,-0.011,-0.0126,-0.0129,-0.0164,-0.0196,-0.0259,-0.0261,-0.0271,-0.0271,-0.0337,-0.0336,-0.0334,-0.0286,-0.028,-0.0275,0,0,0,0,0,0,0.006,0.0024,0.0008,0.0008,-0.0021,-0.0071,-0.0075,-0.0103,-0.0134,-0.0137,-0.0189,-0.02,-0.022,-0.0248,-0.0249,-0.0281,-0.0303,-0.0303,-0.0263,-0.0257,-0.0253,-0.0233,-0.0294,0,0,0,0,0,0.0073,0.007,0.003,0.0031,0.002,-0.0026,-0.0041,-0.0068,-0.0102,-0.0117,-0.0154,-0.0191,-0.0222,-0.024,-0.0269,-0.0286,-0.0297,-0.0292,-0.0287,-0.0283,-0.0272,-0.0297,-0.0294,-0.033,-0.033,-0.033,0,0,0.0087,0.0069,0.0066,0.0039,0.0014,0.0007,-0.0037,-0.0054,-0.0061,-0.0121,-0.0137,-0.0174,-0.0221,-0.0241,-0.0253,-0.0265,-0.0273,-0.0281,-0.0277,-0.0269,-0.0296,-0.0292,-0.0289,-0.0329,-0.0329,-0.0329,0,0,0.012,0.0103,0.0111,0.0093,0.0064,0.0036,0.0035,-0.0009,-0.0031,-0.005,-0.0095,-0.0129,-0.0172,-0.0211,-0.0235,-0.022,-0.0246,-0.0228,-0.0194,-0.0218,-0.0215,-0.0213,-0.0199,-0.0196,-0.0228,-0.0228,-0.0228,0,0.0143,0.0147,0.011,0.0115,0.0107,0.0055,0.0063,0.0035,-0.0011,-0.0019,-0.0044,-0.011,-0.0159,-0.0187,-0.0189,-0.0211,-0.0212,-0.0213,-0.0212,-0.021,-0.0209,-0.0195,-0.0192,-0.0226,-0.0226,-0.0226,-0.0227,0,0.0179,0.0183,0.0188,0.0177,0.0163,0.0163,0.0122,0.011,0.0079,0.0048,0.0019,-0.0049,-0.0086,-0.0114,-0.0152,-0.0167,-0.0164,-0.0201,-0.0225,-0.0202,-0.0189,-0.0187,-0.0222,-0.0223,-0.0224,-0.0224,0,0,0.0239,0.0218,0.0222,0.0228,0.0198,0.0193,0.0187,0.0168,0.0186,0.0117,0.0137,0.0038,0.0003,-0.0026,-0.0083,-0.0118,-0.0118,-0.0151,-0.0154,-0.0133,-0.0134,-0.0106,-0.0101,-0.0154,-0.0154,-0.0154,-0.012,0,0.0284,0.0308,0.028,0.0305,0.0318,0.0274,0.0283,0.0258,0.0237,0.0247,0.0157,0.016,0.0036,0.0043,-0.0028,-0.0076,-0.0114,-0.0121,-0.0163,-0.0163,-0.0139,-0.01,-0.01,-0.0068,-0.0118,-0.0118,-0.0118,0,0.0338,0.0348,0.0378,0.0384,0.0387,0.0397,0.0414,0.0417,0.0405,0.0398,0.0352,0.0305,0.0244,0.0153,0.003,0.0036,-0.0049,-0.0105,-0.0106,-0.0097,-0.0132,-0.0104,-0.0063,-0.0319,-0.0115,-0.0116,-0.0116,0,0.0412,0.042,0.0448,0.0447,0.0445,0.0462,0.0473,0.0471,0.0535,0.0523,0.0601,0.0457,0.0487,0.031,0.0168,0.011,0.0069,-0.0028,-0.0088,-0.0085,-0.0101,-0.01,-0.0312,-0.0115,-0.0115,-0.0115,-0.0115,0,0.0481,0.0507,0.049,0.0511,0.0592,0.0546,0.0651,0.0647,0.071,0.0848,0.0703,0.0811,0.0535,0.0476,0.0258,0.0123,0.0131,-0.0059,-0.0075,-0.0079,-0.0077,-0.0314,-0.0441,-0.0114,-0.0114,-0.0115,-0.0115,0,0.0579,0.0549,0.0608,0.0617,0.0637,0.0709,0.0827,0.0932,0.0947,0.114,0.1171,0.1124,0.1045,0.0775,0.0557,0.032,0.0017,0.0083,0.012,0.0106,-0.0235,-0.0355,-0.0507,-0.0609,0.0001,0.0002,0.0003,0,0.0638,0.0672,0.0725,0.0797,0.0817,0.0919,0.1038,0.1074,0.1216,0.1367,0.1507,0.1482,0.1503,0.1177,0.0751,0.0387,0.0125,0.0152,0.0003,-0.0233,-0.038,-0.0469,-0.0552,0.0012,0.0012,0.0013,0.0013,0,0.0795,0.0806,0.0861,0.1009,0.1134,0.1279,0.1436,0.1571,0.167,0.1821,0.2014,0.2035,0.1746,0.1391,0.0887,0.0593,-0.0019,0.0155,-0.0119,-0.0403,-0.0483,-0.0593,-0.001,0.0019,0.0018,0.0018,0.0018,0.0017,0.0942,0.1025,0.1112,0.1254,0.141,0.1615,0.175,0.1927,0.2156,0.2361,0.2387,0.2444,0.1902,0.1206,0.0817,0.0047,0.0046,-0.0227,-0.035,-0.0415,-0.0538,0.0088,0.0109,0.0109,0.0109,0.0109,0.0109,0,0.1119,0.1203,0.1359,0.1523,0.1717,0.1756,0.2012,0.2135,0.239,0.2592,0.2722,0.2473,0.1827,0.1117,0.0117,-0.0391,-0.0613,-0.0681,-0.0865,-0.0926,-0.04,-0.0431,-0.049,-0.049,-0.049,-0.0489,-0.0489,-0.0489,0.1226,0.139,0.1453,0.1773,0.1886,0.2122,0.2256,0.2436,0.2582,0.2766,0.279,0.2773,0.2175,0.0508,-0.0683,-0.0964,-0.1321,-0.135,-0.153,-0.1255,-0.1225,-0.1197,-0.1261,-0.1493,-0.1494,-0.2022,-0.2028,-0.2032]}],[{"header":{"parameterUnit":"m.s-1","parameterCategory":2,"la1":30.2991,"la2":30.254,"lo1":-89.0895,"lo2":-89.0444,"dy":0.0017,"dx":0.0017,"nx":28,"ny":28,"refTime":"2024-09-01T09:00:00:Z","depth":"2","parameterNumber":2,"parameterNumberName":"U-component_of_CURRENTS"},"data":[0,0,0,0,0,0,0,0,0,0,0,0,0,0,0,0,0,0,0,0,0,0,0,0,0,0,0,0,0,0,0,0,0,0,0,0,0,0,0,0,0,0,0,0,0,0,0,0,0,0,0,0,0,0,0,0,0,0,0.2255,0.2256,0,0.2326,0.2328,0.2329,0.2366,0.2365,0.2365,0.2365,0.2399,0.24,0.2401,0,0,0,0,0,0,0,0,0,0,0,0,0,0.2199,0.22,0.2255,0.2256,0.2256,0.2326,0.2328,0.2329,0.2366,0.2365,0.2365,0.2365,0.2398,0.24,0.2401,0,0,0,0,0,0,0,0,0,0,0,0,0,0.2246,0.22,0.2255,0.228,0.2283,0.2326,0.2328,0.2329,0.2366,0.2365,0.2365,0.2365,0.2398,0.24,0.2401,0.2422,0,0,0.2407,0.2408,0,0,0,0,0,0,0,0,0.2243,0.2249,0.2276,0.2278,0.2281,0.2333,0.232,0.2357,0.2366,0.2339,0.2365,0.2364,0.2371,0.2375,0.2396,0.2424,0.2425,0.2407,0.2408,0.2409,0.2409,0,0,0,0,0,0,0,0.224,0.2246,0.2288,0.2276,0.228,0.2304,0.231,0.2328,0.2359,0.2341,0.2343,0.2344,0.2373,0.2394,0.2397,0.2426,0.2407,0.2409,0.241,0.241,0.247,0.2471,0,0,0,0,0,0,0.2221,0.2243,0.2285,0.2289,0.2256,0.2305,0.2312,0.232,0.236,0.2365,0.2345,0.2346,0.2391,0.2395,0.2398,0.2453,0.2409,0.2411,0.2412,0.247,0.247,0.2471,0,0,0,0,0,0,0.222,0.2225,0.2282,0.2264,0.2272,0.2305,0.2315,0.2322,0.2348,0.2362,0.2367,0.2363,0.2391,0.2395,0.2423,0.2453,0.2411,0.2413,0.2469,0.247,0.247,0.2545,0,0,0,0,0,0,0.2218,0.2224,0.2233,0.2263,0.2273,0.2314,0.2315,0.2324,0.2347,0.235,0.238,0.2382,0.2391,0.242,0.2425,0.2455,0.2414,0.2468,0.2469,0.247,0.2542,0.2548,0.2554,0,0,0,0,0,0.2216,0.2225,0.2233,0.2238,0.2281,0.2315,0.2323,0.2347,0.2348,0.2368,0.2386,0.2382,0.2429,0.2423,0.2428,0.2459,0.2468,0.2469,0.247,0.2539,0.2547,0.2554,0,0,0,0,0,0,0.2201,0.223,0.2239,0.2256,0.2285,0.2319,0.2342,0.2351,0.2384,0.2389,0.2396,0.2401,0.2434,0.243,0.2423,0.2474,0.2444,0.2447,0.2495,0.2502,0.2508,0.251,0.2416,0,0,0,0,0,0.2201,0.222,0.2249,0.2263,0.2283,0.2314,0.2332,0.2349,0.2375,0.239,0.2411,0.2426,0.2443,0.2459,0.2472,0.2508,0.2518,0.2525,0.2531,0.2537,0.2539,0.2577,0.2588,0.2474,0.2474,0.2474,0,0,0.2199,0.2216,0.2227,0.2262,0.2293,0.232,0.2326,0.2361,0.2388,0.2387,0.2438,0.2449,0.2454,0.2495,0.2509,0.2498,0.2578,0.2538,0.2543,0.2542,0.258,0.2591,0.2601,0.2475,0.2475,0.2475,0,0,0.2203,0.2225,0.2245,0.2272,0.2312,0.2333,0.2341,0.2387,0.2418,0.2456,0.2464,0.249,0.2519,0.254,0.2547,0.2589,0.2603,0.2594,0.2638,0.2676,0.2687,0.2696,0.2746,0.2758,0.2604,0.2604,0.2604,0,0.2203,0.2228,0.2257,0.2283,0.2309,0.2335,0.2367,0.2401,0.2449,0.248,0.2474,0.2533,0.2537,0.2589,0.2608,0.2604,0.2636,0.2617,0.2687,0.2696,0.2704,0.2752,0.2766,0.2607,0.2607,0.2607,0.2606,0,0.2222,0.2248,0.2266,0.2307,0.2338,0.2371,0.2415,0.2454,0.2482,0.2512,0.2575,0.2596,0.2627,0.2638,0.2638,0.2705,0.2714,0.2689,0.2676,0.272,0.2768,0.2781,0.2613,0.2611,0.261,0.2609,0,0,0.2213,0.2271,0.2276,0.2301,0.2358,0.2381,0.2437,0.2497,0.254,0.2584,0.2647,0.2679,0.2699,0.2708,0.2725,0.2765,0.2854,0.2763,0.2763,0.2824,0.2966,0.2941,0.2952,0.2856,0.2858,0.286,0.2986,0,0.2227,0.2271,0.2302,0.2345,0.2377,0.2424,0.2482,0.2536,0.2582,0.265,0.2688,0.2747,0.2725,0.2763,0.2797,0.2843,0.2887,0.2823,0.2902,0.2905,0.2886,0.2965,0.2741,0.2832,0.2998,0.3,0.3002,0,0.2238,0.2267,0.2316,0.2382,0.2405,0.2435,0.2524,0.2578,0.2672,0.2722,0.2776,0.2809,0.2887,0.2853,0.2953,0.2923,0.2947,0.2973,0.2978,0.2933,0.2901,0.2808,0.2848,0.3022,0.3021,0.3019,0.3018,0,0.222,0.2274,0.2312,0.2333,0.2414,0.2454,0.2504,0.2597,0.2672,0.2772,0.2841,0.2906,0.2983,0.3008,0.306,0.3021,0.3173,0.3113,0.3113,0.3112,0.2923,0.2902,0.3173,0.3172,0.3172,0.3172,0.3171,0,0.2228,0.2257,0.2301,0.2327,0.2404,0.2448,0.2538,0.2616,0.2721,0.2813,0.2879,0.2973,0.3031,0.3117,0.3114,0.3177,0.3215,0.3143,0.3148,0.2944,0.2924,0.3073,0.306,0.3177,0.3175,0.3175,0.3174,0,0.2245,0.2252,0.2308,0.2378,0.2405,0.2466,0.258,0.2644,0.2748,0.2871,0.2918,0.3068,0.3177,0.3229,0.3309,0.3273,0.3308,0.3313,0.3084,0.3059,0.3203,0.3192,0.3313,0.3313,0.3313,0.3313,0.3313,0,0.2284,0.2299,0.2368,0.239,0.2431,0.2504,0.2575,0.2673,0.2731,0.2919,0.2984,0.3147,0.3218,0.3352,0.3339,0.3352,0.3369,0.3153,0.301,0.3228,0.3221,0.3209,0.3198,0.28,0.2795,0.2792,0.279,0,0.235,0.2355,0.2385,0.2448,0.2495,0.2569,0.2646,0.268,0.2789,0.2878,0.2999,0.3067,0.3227,0.3155,0.3215,0.3176,0.3124,0.3087,0.339,0.2799,0.2754,0.2744,0.2747,0.276,0.2763,0.2765,0.2767,0.2768,0.239,0.242,0.2422,0.248,0.2537,0.2578,0.2586,0.2626,0.268,0.2716,0.2878,0.2896,0.2965,0.2927,0.2868,0.2844,0.3023,0.2871,0.2877,0.2887,0.2806,0.2763,0.2757,0.276,0.2762,0.2765,0.2767,0,0.239,0.2393,0.245,0.2466,0.2489,0.2564,0.2594,0.2509,0.2473,0.2578,0.2608,0.2431,0.2437,0.2508,0.2437,0.2457,0.238,0.2353,0.2222,0.2257,0.2287,0.2168,0.1954,0.1951,0.1948,0.1945,0,0,0.2356,0.2349,0.2365,0.2364,0.241,0.239,0.2372,0.2248,0.2238,0.2126,0.2134,0.2316,0.246,0.216,0.215,0.2045,0.2122,0.1974,0.264,0.2525,0.2549,0.262,0.2483,0,0,0,0,0]},{"header":{"parameterUnit":"m.s-1","parameterCategory":2,"la1":30.2991,"la2":30.254,"lo1":-89.0895,"lo2":-89.0444,"dy":0.0017,"dx":0.0017,"nx":28,"ny":28,"refTime":"2024-09-01T09:00:00:Z","depth":"2","parameterNumber":3,"parameterNumberName":"V-component_of_CURRENTS"},"data":[0,0,0,0,0,0,0,0,0,0,0,0,0,0,0,0,0,0,0,0,0,0,0,0,0,0,0,0,0,0,0,0,0,0,0,0,0,0,0,0,0,0,0,0,0,0,0,0,0,0,0,0,0,0,0,0,0,0,-0.0063,-0.0064,0,-0.0142,-0.0143,-0.0144,-0.0201,-0.0201,-0.0201,-0.0202,-0.0301,-0.0304,-0.0306,0,0,0,0,0,0,0,0,0,0,0,0,0,-0.0033,-0.0033,-0.0063,-0.0064,-0.0064,-0.0142,-0.0143,-0.0145,-0.0201,-0.0201,-0.0201,-0.0202,-0.0301,-0.0304,-0.0307,0,0,0,0,0,0,0,0,0,0,0,0,0,-0.0075,-0.0033,-0.0063,-0.01,-0.0103,-0.0141,-0.0143,-0.0145,-0.0201,-0.0201,-0.0202,-0.0202,-0.03,-0.0303,-0.0307,-0.0325,0,0,-0.0318,-0.032,0,0,0,0,0,0,0,0,-0.0073,-0.0077,-0.0093,-0.0097,-0.0101,-0.0159,-0.0169,-0.0205,-0.0201,-0.0167,-0.0202,-0.0202,-0.0253,-0.0261,-0.028,-0.033,-0.0334,-0.0319,-0.0321,-0.0323,-0.0324,0,0,0,0,0,0,0,-0.007,-0.0074,-0.0098,-0.0094,-0.0099,-0.0136,-0.0142,-0.0177,-0.0211,-0.017,-0.0174,-0.0177,-0.0256,-0.0276,-0.0282,-0.0335,-0.0319,-0.0322,-0.0324,-0.0326,-0.0389,-0.0389,0,0,0,0,0,0,-0.0049,-0.0071,-0.0095,-0.01,-0.0084,-0.0136,-0.0143,-0.0143,-0.021,-0.022,-0.0177,-0.018,-0.0269,-0.0278,-0.0286,-0.0302,-0.0323,-0.0326,-0.0328,-0.039,-0.0389,-0.0389,0,0,0,0,0,0,-0.0048,-0.005,-0.0092,-0.0085,-0.0092,-0.0135,-0.0136,-0.0144,-0.0163,-0.0214,-0.0225,-0.0186,-0.027,-0.0281,-0.0307,-0.0307,-0.0328,-0.0331,-0.039,-0.039,-0.0389,-0.034,0,0,0,0,0,0,-0.0047,-0.005,-0.0045,-0.0083,-0.0092,-0.0105,-0.0135,-0.0146,-0.0163,-0.0168,-0.0226,-0.0235,-0.0271,-0.03,-0.031,-0.0312,-0.0334,-0.0391,-0.039,-0.0389,-0.0342,-0.0337,-0.0333,0,0,0,0,0,-0.0046,-0.0034,-0.0045,-0.0048,-0.0083,-0.0104,-0.0112,-0.0147,-0.0163,-0.0166,-0.0202,-0.0234,-0.0301,-0.0303,-0.0315,-0.0318,-0.0392,-0.039,-0.0389,-0.0344,-0.0338,-0.0333,0,0,0,0,0,0,-0.0022,-0.004,-0.0052,-0.0047,-0.0069,-0.0112,-0.0118,-0.0141,-0.0174,-0.0178,-0.0229,-0.0241,-0.0264,-0.0293,-0.0294,-0.0331,-0.0351,-0.0352,-0.0312,-0.0307,-0.0303,-0.028,-0.0337,0,0,0,0,0,-0.0012,-0.0007,-0.0034,-0.0031,-0.0038,-0.0078,-0.0092,-0.0112,-0.0144,-0.0159,-0.0198,-0.0236,-0.0268,-0.0288,-0.0319,-0.0341,-0.0364,-0.0348,-0.0344,-0.034,-0.0328,-0.0361,-0.0359,-0.0384,-0.0384,-0.0384,0,0,-0.0003,-0.0011,-0.001,-0.0025,-0.0047,-0.0047,-0.0088,-0.01,-0.0105,-0.0164,-0.0184,-0.0222,-0.0269,-0.0292,-0.0305,-0.0317,-0.0344,-0.0338,-0.0335,-0.0324,-0.0359,-0.0357,-0.0355,-0.0383,-0.0384,-0.0384,0,0,0.0023,0.0012,0.0025,0.0016,-0.0003,-0.0024,-0.0022,-0.0059,-0.0083,-0.0102,-0.0146,-0.0177,-0.0226,-0.0262,-0.0285,-0.0273,-0.0318,-0.0287,-0.0252,-0.0285,-0.0283,-0.0282,-0.0307,-0.0308,-0.0288,-0.0288,-0.0288,0,0.0033,0.0049,0.0024,0.0037,0.0035,-0.0006,0.0007,-0.0021,-0.0062,-0.0074,-0.0095,-0.0164,-0.021,-0.024,-0.024,-0.0264,-0.0287,-0.0271,-0.028,-0.0279,-0.0278,-0.0304,-0.0306,-0.0285,-0.0285,-0.0286,-0.0286,0,0.0068,0.0082,0.0089,0.0095,0.009,0.0094,0.0063,0.0051,0.0022,-0.0006,-0.004,-0.0104,-0.0141,-0.0168,-0.0204,-0.0226,-0.0244,-0.0269,-0.0293,-0.0273,-0.0301,-0.0305,-0.0282,-0.0282,-0.0283,-0.0284,0,0,0.0087,0.011,0.0113,0.013,0.0122,0.0122,0.0121,0.0107,0.0112,0.0058,0.0056,-0.002,-0.0055,-0.0084,-0.0141,-0.018,-0.0206,-0.022,-0.0223,-0.0243,-0.0273,-0.0302,-0.0309,-0.0236,-0.0236,-0.0236,-0.0294,0,0.0119,0.0164,0.0163,0.02,0.0219,0.0195,0.0201,0.0184,0.0158,0.0147,0.0072,0.0049,-0.0025,-0.0041,-0.0092,-0.0172,-0.0212,-0.0187,-0.029,-0.0293,-0.0321,-0.0313,-0.0284,-0.0335,-0.0298,-0.0298,-0.0299,0,0.015,0.0181,0.0226,0.0261,0.0266,0.0283,0.0293,0.0294,0.0268,0.025,0.021,0.0155,0.009,0.003,-0.0099,-0.0081,-0.0167,-0.0236,-0.024,-0.0284,-0.0328,-0.0349,-0.0342,-0.0304,-0.0304,-0.0303,-0.0303,0,0.0173,0.0221,0.0262,0.0273,0.0304,0.0321,0.0335,0.0327,0.0348,0.0321,0.0345,0.0241,0.0215,0.0086,-0.0062,-0.0079,-0.0197,-0.0239,-0.0347,-0.035,-0.0352,-0.0355,-0.0322,-0.0322,-0.0322,-0.0322,-0.0322,0,0.0201,0.0232,0.0281,0.0303,0.0365,0.0364,0.0415,0.0419,0.044,0.0486,0.0404,0.0418,0.0229,0.0136,-0.0021,-0.0187,-0.0168,-0.0333,-0.0366,-0.0334,-0.0335,-0.033,-0.0331,-0.0324,-0.0323,-0.0323,-0.0323,0,0.0212,0.0236,0.029,0.0346,0.0378,0.0415,0.0494,0.0533,0.055,0.0614,0.0619,0.0557,0.0427,0.0235,0.0032,-0.0114,-0.0283,-0.0347,-0.0295,-0.0321,-0.0425,-0.0422,-0.0474,-0.0476,-0.0477,-0.0478,-0.0479,0,0.0222,0.0253,0.0338,0.0383,0.0413,0.0481,0.0543,0.0584,0.0636,0.0701,0.0741,0.0657,0.0589,0.0286,0.0012,-0.0261,-0.0293,-0.0401,-0.0439,-0.0414,-0.044,-0.0435,-0.043,-0.0422,-0.0422,-0.0422,-0.0423,0,0.0241,0.0266,0.0313,0.042,0.0491,0.0585,0.0674,0.0718,0.0776,0.0846,0.0896,0.0855,0.0601,0.0327,-0.003,-0.0215,-0.0362,-0.0417,-0.0398,-0.039,-0.037,-0.0394,-0.039,-0.0425,-0.0425,-0.0425,-0.0425,-0.0425,0.025,0.0281,0.0346,0.0439,0.0544,0.0648,0.0701,0.0795,0.0879,0.0974,0.0971,0.0959,0.0684,0.0223,-0.0084,-0.0387,-0.0391,-0.0497,-0.0494,-0.0491,-0.0476,-0.046,-0.0529,-0.0529,-0.0529,-0.053,-0.053,0,0.0236,0.0278,0.0369,0.0461,0.0564,0.0648,0.0771,0.083,0.091,0.1043,0.1093,0.0874,0.0579,0.0281,-0.017,-0.0462,-0.0478,-0.0546,-0.0495,-0.0491,-0.0488,-0.0472,-0.0525,-0.0525,-0.0526,-0.0526,0,0,0.0214,0.026,0.0302,0.0436,0.054,0.0679,0.0739,0.0871,0.0985,0.1074,0.1122,0.1096,0.0723,0.0402,0.0003,-0.0246,-0.03,-0.0302,-0.0278,-0.0168,-0.0161,-0.0437,-0.0405,0,0,0,0,0]}],[{"header":{"parameterUnit":"m.s-1","parameterCategory":2,"la1":30.2991,"la2":30.254,"lo1":-89.0895,"lo2":-89.0444,"dy":0.0017,"dx":0.0017,"nx":28,"ny":28,"refTime":"2024-09-01T09:00:00:Z","depth":"4","parameterNumber":2,"parameterNumberName":"U-component_of_CURRENTS"},"data":[0,0,0,0,0,0,0,0,0,0,0,0,0,0,0,0,0,0,0,0,0,0,0,0,0,0,0,0,0,0,0,0,0,0,0,0,0,0,0,0,0,0,0,0,0,0,0,0,0,0,0,0,0,0,0,0,0,0,0.1303,0.1304,0,0.1374,0.1374,0.1375,0.1431,0.1432,0.1433,0.1434,0.151,0.1511,0.1512,0,0,0,0,0,0,0,0,0,0,0,0,0,0.1211,0.1212,0.1303,0.1304,0.1305,0.1374,0.1374,0.1375,0.1431,0.1432,0.1433,0.1434,0.151,0.1511,0.1512,0,0,0,0,0,0,0,0,0,0,0,0,0,0.1259,0.1213,0.1303,0.1345,0.135,0.1374,0.1374,0.1375,0.143,0.1432,0.1433,0.1435,0.1509,0.1511,0.1512,0.1493,0,0,0.1517,0.1518,0,0,0,0,0,0,0,0,0.1256,0.1261,0.1337,0.1342,0.1348,0.1399,0.137,0.1416,0.143,0.1395,0.1434,0.1435,0.1475,0.148,0.1483,0.1496,0.15,0.1518,0.1519,0.1519,0.152,0,0,0,0,0,0,0,0.1253,0.1259,0.1326,0.1339,0.1345,0.136,0.1367,0.1379,0.1422,0.1398,0.1403,0.1418,0.1478,0.1481,0.1485,0.1501,0.1518,0.1519,0.152,0.1521,0.1633,0.1635,0,0,0,0,0,0,0.1252,0.1256,0.1324,0.1329,0.131,0.136,0.1369,0.1377,0.1422,0.1432,0.1417,0.1421,0.1478,0.1483,0.1488,0.1572,0.1519,0.1521,0.1522,0.1631,0.1633,0.1636,0,0,0,0,0,0,0.125,0.1257,0.1321,0.1298,0.1308,0.1361,0.1369,0.1378,0.1414,0.1438,0.1447,0.1449,0.1479,0.1486,0.1536,0.1572,0.1522,0.1523,0.1629,0.1632,0.1635,0.1673,0,0,0,0,0,0,0.1247,0.1256,0.1272,0.1298,0.1309,0.1357,0.1369,0.1378,0.1422,0.1428,0.1467,0.1474,0.1481,0.1534,0.1538,0.1573,0.1524,0.1626,0.163,0.1634,0.167,0.1677,0.1684,0,0,0,0,0,0.1243,0.1256,0.1272,0.1282,0.1326,0.1358,0.1365,0.1404,0.1422,0.1441,0.1477,0.1475,0.1561,0.1536,0.1541,0.1578,0.1624,0.1629,0.1633,0.1666,0.1676,0.1684,0,0,0,0,0,0,0.1224,0.1264,0.1282,0.1307,0.1342,0.137,0.1394,0.1418,0.1458,0.1476,0.1491,0.1501,0.1562,0.1564,0.1537,0.1624,0.1595,0.1601,0.1619,0.1628,0.1635,0.1638,0.1526,0,0,0,0,0,0.1227,0.1251,0.1287,0.1312,0.1329,0.1365,0.1388,0.1418,0.1453,0.1473,0.1503,0.154,0.1576,0.1599,0.1628,0.1664,0.1679,0.1696,0.1703,0.1709,0.1717,0.1765,0.1777,0.165,0.165,0.165,0,0,0.1227,0.1254,0.1269,0.1311,0.1338,0.1369,0.1382,0.1428,0.1464,0.1474,0.1535,0.1566,0.1594,0.1646,0.1673,0.1656,0.1756,0.1714,0.1719,0.1724,0.1771,0.1783,0.1794,0.1653,0.1653,0.1652,0,0,0.1234,0.1263,0.1285,0.1313,0.1367,0.1392,0.1412,0.1459,0.1493,0.1549,0.1574,0.1627,0.1675,0.1705,0.1724,0.1786,0.1794,0.1804,0.1839,0.1887,0.1897,0.1906,0.1948,0.1961,0.1805,0.1805,0.1805,0,0.1238,0.1267,0.1297,0.1325,0.1357,0.1405,0.1438,0.1473,0.1536,0.157,0.1581,0.1683,0.1702,0.177,0.1798,0.1801,0.1831,0.1799,0.1895,0.1904,0.1913,0.1953,0.1967,0.1807,0.1807,0.1807,0.1807,0,0.125,0.1288,0.1302,0.1355,0.1393,0.143,0.1483,0.1532,0.1582,0.1621,0.171,0.1746,0.181,0.1827,0.1831,0.1912,0.1914,0.1898,0.1867,0.1928,0.1967,0.198,0.1811,0.181,0.1809,0.1809,0,0,0.122,0.1297,0.1307,0.134,0.1415,0.1444,0.1513,0.1584,0.164,0.1706,0.1782,0.1846,0.1881,0.1906,0.1928,0.1966,0.2051,0.1965,0.1966,0.1997,0.2167,0.2036,0.2038,0.2057,0.2059,0.2061,0.2171,0,0.1226,0.1281,0.1324,0.1389,0.142,0.1488,0.1546,0.1621,0.1693,0.1776,0.1835,0.1917,0.1907,0.1959,0.1996,0.2047,0.2089,0.2024,0.2112,0.2115,0.1983,0.2049,0.2069,0.2181,0.2184,0.2186,0.2188,0,0.1216,0.1262,0.1322,0.1412,0.1433,0.1486,0.1597,0.1658,0.1776,0.1838,0.1929,0.1984,0.2077,0.2053,0.2163,0.2128,0.2156,0.2178,0.2182,0.2054,0.2008,0.2108,0.2212,0.221,0.2208,0.2206,0.2205,0,0.1162,0.1256,0.1309,0.1336,0.1444,0.1498,0.1567,0.1683,0.1749,0.1896,0.1968,0.2073,0.2153,0.2204,0.2258,0.2229,0.2365,0.2325,0.2231,0.2223,0.2289,0.2277,0.2396,0.2396,0.2396,0.2395,0.2395,0,0.1125,0.1169,0.1296,0.1315,0.1395,0.1485,0.1581,0.1665,0.1802,0.1892,0.2005,0.2086,0.2198,0.2283,0.2303,0.2314,0.2406,0.2252,0.2245,0.2304,0.2293,0.2298,0.2286,0.2399,0.2398,0.2398,0.2397,0,0.1038,0.1121,0.1183,0.1314,0.1365,0.1422,0.1577,0.1643,0.1788,0.1916,0.1974,0.2134,0.2242,0.2326,0.2428,0.2366,0.2391,0.2369,0.245,0.2443,0.2207,0.2195,0.2271,0.2268,0.2265,0.2262,0.226,0,0.0994,0.1018,0.116,0.1206,0.1269,0.1379,0.1453,0.1617,0.1695,0.1923,0.1972,0.2142,0.2231,0.2269,0.2357,0.24,0.2365,0.2365,0.2256,0.221,0.2197,0.219,0.2182,0.2255,0.2254,0.2253,0.2253,0,0.0903,0.0963,0.1016,0.112,0.1208,0.1287,0.1412,0.1461,0.1662,0.1816,0.1932,0.2008,0.2127,0.2192,0.2251,0.2267,0.2355,0.2331,0.2336,0.2234,0.2191,0.2179,0.2176,0.2242,0.2244,0.2245,0.2245,0,0.0836,0.0849,0.0937,0.1024,0.112,0.1175,0.1251,0.1367,0.1471,0.1734,0.1771,0.1951,0.2109,0.2126,0.2177,0.2191,0.2145,0.2062,0.208,0.2093,0.1982,0.1898,0.1866,0,0,0,0,0,0.0767,0.0781,0.084,0.0925,0.1015,0.1079,0.1221,0.1306,0.1515,0.1555,0.1662,0.1768,0.1867,0.195,0.1927,0.2085,0.214,0.2048,0.2049,0.2183,0.2195,0.2079,0,0,0,0,0,0,0.0719,0.076,0.0802,0.0841,0.0877,0.0967,0.1048,0.1182,0.1213,0.1428,0.1483,0.1655,0.1762,0.186,0.189,0.1918,0.1881,0.2166,0.2162,0.2176,0.2187,0.2197,0.2082,0,0,0,0,0]},{"header":{"parameterUnit":"m.s-1","parameterCategory":2,"la1":30.2991,"la2":30.254,"lo1":-89.0895,"lo2":-89.0444,"dy":0.0017,"dx":0.0017,"nx":28,"ny":28,"refTime":"2024-09-01T09:00:00:Z","depth":"4","parameterNumber":3,"parameterNumberName":"V-component_of_CURRENTS"},"data":[0,0,0,0,0,0,0,0,0,0,0,0,0,0,0,0,0,0,0,0,0,0,0,0,0,0,0,0,0,0,0,0,0,0,0,0,0,0,0,0,0,0,0,0,0,0,0,0,0,0,0,0,0,0,0,0,0,0,0.0065,0.0065,0,0.0022,0.0022,0.0021,-0.0006,-0.0006,-0.0006,-0.0006,-0.0076,-0.0077,-0.0079,0,0,0,0,0,0,0,0,0,0,0,0,0,0.0081,0.0082,0.0065,0.0065,0.0064,0.0022,0.0022,0.0021,-0.0006,-0.0006,-0.0006,-0.0006,-0.0075,-0.0077,-0.0079,0,0,0,0,0,0,0,0,0,0,0,0,0,0.0061,0.0082,0.0066,0.0045,0.0043,0.0023,0.0022,0.0021,-0.0005,-0.0006,-0.0006,-0.0006,-0.0075,-0.0077,-0.0079,-0.0088,0,0,-0.0087,-0.0088,0,0,0,0,0,0,0,0,0.0062,0.006,0.0049,0.0047,0.0044,0.0013,0.0002,-0.0017,-0.0005,0.0014,-0.0006,-0.0007,-0.0049,-0.0053,-0.0059,-0.0091,-0.0094,-0.0087,-0.0089,-0.009,-0.009,0,0,0,0,0,0,0,0.0064,0.0062,0.0049,0.0048,0.0045,0.0023,0.0021,-0.0002,-0.0015,0.0012,0.001,0.0004,-0.005,-0.0057,-0.0061,-0.0095,-0.0087,-0.0089,-0.0091,-0.0092,-0.0151,-0.0151,0,0,0,0,0,0,0.007,0.0064,0.005,0.0048,0.0052,0.0024,0.002,0.0024,-0.0014,-0.0021,0.0004,0.0003,-0.0053,-0.0058,-0.0064,-0.0074,-0.009,-0.0092,-0.0093,-0.0151,-0.0151,-0.0151,0,0,0,0,0,0,0.0071,0.007,0.0052,0.0053,0.0049,0.0024,0.0028,0.0023,0.0016,-0.002,-0.0027,0.0001,-0.0053,-0.006,-0.0079,-0.0077,-0.0093,-0.0095,-0.0151,-0.0151,-0.0151,-0.0097,0,0,0,0,0,0,0.0072,0.0071,0.0074,0.0054,0.005,0.0048,0.0028,0.0022,0.0012,0.001,-0.0025,-0.0032,-0.0054,-0.0075,-0.0081,-0.0081,-0.0097,-0.0151,-0.0151,-0.0151,-0.0099,-0.0095,-0.0092,0,0,0,0,0,0.0073,0.0082,0.0075,0.0073,0.0057,0.0048,0.0044,0.0025,0.0012,0.0016,-0.0009,-0.003,-0.0081,-0.0076,-0.0084,-0.0085,-0.0151,-0.0151,-0.0151,-0.01,-0.0096,-0.0092,0,0,0,0,0,0,0.0086,0.008,0.0072,0.0077,0.0066,0.0043,0.0042,0.0027,0.0011,0.0007,-0.0027,-0.0035,-0.0054,-0.0077,-0.0071,-0.0104,-0.0121,-0.0123,-0.008,-0.0076,-0.0073,-0.0058,-0.0099,0,0,0,0,0,0.0093,0.0101,0.0086,0.009,0.0087,0.0065,0.0057,0.0046,0.0027,0.0019,-0.0005,-0.0035,-0.006,-0.0073,-0.0098,-0.0112,-0.0143,-0.012,-0.0117,-0.0114,-0.0107,-0.0148,-0.0147,-0.0152,-0.0152,-0.0152,0,0,0.0098,0.0095,0.0098,0.0094,0.0083,0.0088,0.006,0.0055,0.0057,0.0014,0.0009,-0.0024,-0.0062,-0.0078,-0.0088,-0.0096,-0.0131,-0.0114,-0.0111,-0.0106,-0.0148,-0.0148,-0.0147,-0.0152,-0.0152,-0.0152,0,0,0.0115,0.0112,0.0126,0.0124,0.0114,0.0103,0.0104,0.0085,0.0076,0.0066,0.0032,0.0004,-0.0031,-0.0057,-0.0076,-0.0071,-0.0113,-0.0084,-0.0054,-0.0093,-0.0093,-0.0093,-0.0137,-0.0142,-0.0082,-0.0081,-0.0081,0,0.0118,0.0137,0.0127,0.014,0.0142,0.0114,0.0128,0.0117,0.0094,0.0087,0.0072,0.0013,-0.002,-0.0044,-0.0044,-0.0064,-0.0094,-0.0062,-0.0088,-0.0089,-0.009,-0.0135,-0.0141,-0.0079,-0.0079,-0.0079,-0.008,0,0.0147,0.0163,0.0171,0.0183,0.0184,0.019,0.0178,0.0174,0.0155,0.0137,0.0109,0.0063,0.0027,0.0008,-0.0016,-0.004,-0.0063,-0.0079,-0.0093,-0.0086,-0.0135,-0.0141,-0.0075,-0.0076,-0.0077,-0.0077,0,0,0.0146,0.0185,0.0186,0.0204,0.0208,0.0211,0.0221,0.0216,0.0217,0.0184,0.0175,0.0125,0.0092,0.0068,0.0027,-0.0007,-0.0046,-0.004,-0.0043,-0.0076,-0.0138,-0.0143,-0.0152,-0.0065,-0.0065,-0.0066,-0.0171,0,0.0167,0.0211,0.0222,0.0256,0.0275,0.0268,0.0281,0.0273,0.0251,0.0235,0.0182,0.0153,0.0116,0.0094,0.0056,-0.0023,-0.0061,-0.0017,-0.0147,-0.0151,-0.015,-0.0158,-0.0068,-0.0176,-0.0178,-0.0179,-0.018,0,0.0183,0.0214,0.0259,0.0301,0.0308,0.0324,0.0334,0.0342,0.0316,0.0299,0.0261,0.0213,0.0156,0.0123,0.0003,0.0033,-0.0044,-0.0105,-0.0111,-0.0137,-0.0169,-0.0186,-0.0193,-0.0192,-0.0191,-0.019,-0.0189,0,0.0178,0.0233,0.0273,0.0286,0.0329,0.0346,0.0363,0.0357,0.0361,0.0331,0.0316,0.0249,0.0198,0.0109,-0.0017,-0.001,-0.0155,-0.0164,-0.0242,-0.0245,-0.0231,-0.023,-0.0247,-0.0247,-0.0246,-0.0246,-0.0246,0,0.0189,0.0216,0.0278,0.0296,0.0338,0.0365,0.0392,0.0395,0.0396,0.0394,0.0344,0.0312,0.0192,0.0094,-0.0009,-0.0149,-0.0153,-0.0239,-0.027,-0.0208,-0.0203,-0.0237,-0.0235,-0.025,-0.0249,-0.0248,-0.0248,0,0.0166,0.021,0.0253,0.0315,0.0336,0.036,0.0412,0.0425,0.0431,0.0423,0.0413,0.0341,0.022,0.0092,-0.0071,-0.0147,-0.0273,-0.0323,-0.0253,-0.0278,-0.0339,-0.0333,-0.0414,-0.0415,-0.0416,-0.0417,-0.0418,0,0.0156,0.018,0.0252,0.0277,0.0305,0.0354,0.0385,0.0427,0.0442,0.0435,0.0422,0.0322,0.0255,0.0038,-0.0101,-0.0293,-0.0319,-0.0384,-0.0351,-0.0333,-0.0356,-0.0348,-0.0341,-0.0419,-0.0419,-0.0419,-0.042,0,0.0131,0.0157,0.0193,0.0252,0.0292,0.0346,0.0397,0.0417,0.046,0.0459,0.0435,0.0336,0.0196,0.004,-0.0115,-0.0252,-0.0335,-0.0393,-0.0392,-0.0361,-0.034,-0.036,-0.0351,-0.0423,-0.0422,-0.0422,-0.0422,0,0.0103,0.012,0.0175,0.0227,0.0276,0.0334,0.0367,0.0409,0.0443,0.0458,0.044,0.0322,0.0254,0.0057,-0.0087,-0.0219,-0.0249,-0.0279,-0.0284,-0.0282,-0.0208,-0.016,-0.0214,0,0,0,0,0,0.0085,0.0117,0.0151,0.0225,0.027,0.0319,0.0375,0.0409,0.0455,0.0447,0.046,0.0345,0.0157,0.0072,-0.0061,-0.0133,-0.0299,-0.0295,-0.0341,-0.0439,-0.0436,-0.0371,0,0,0,0,0,0,0.0077,0.0111,0.0147,0.0216,0.0269,0.0337,0.0382,0.0412,0.0423,0.0444,0.0349,0.0321,0.0131,0.0242,-0.0056,-0.01,-0.0146,-0.038,-0.0383,-0.0441,-0.0438,-0.0435,-0.0368,0,0,0,0,0]}]]